Location: Atherton
(17.2661°S, 145.4859°E)
Time: 05:31:48
(UTC+10:00)

Vanguard 2 Rocket - All Passes

Search period start: 18 June 2025 00:00
Search period end: 28 June 2025 00:00
Orbit: 554 x 3292 km, 32.9° (Epoch: 17 June)

Date Brightness Start Highest point End Pass type
(mag) Time Alt. Az. Time Alt. Az. Time Alt. Az.
18 Jun - 00:26:40 10° NW 00:46:02 82° NNE 00:58:10 10° ESE visible
18 Jun - 02:47:36 10° W 03:02:11 47° SSW 03:10:43 10° SE visible
18 Jun - 05:10:17 10° WSW 05:17:45 24° S 05:22:47 10° SE visible
18 Jun - 07:27:42 10° SW 07:32:41 27° SSE 07:36:23 10° ESE daylight
18 Jun - 09:41:25 10° WSW 09:45:28 47° NNW 09:49:22 10° NE daylight
18 Jun - 21:06:32 10° NNW 21:21:30 26° NE 21:35:14 10° E visible
18 Jun - 23:19:57 10° NW 23:39:43 64° NE 23:53:39 10° ESE visible
19 Jun - 01:39:04 10° WNW 01:56:41 64° SSW 02:07:08 10° SE night (unlit)
19 Jun - 04:02:05 10° WSW 04:12:41 31° SSW 04:19:20 10° SE visible
19 Jun - 06:22:17 10° SW 06:28:13 24° S 06:32:23 10° ESE visible
19 Jun - 08:37:01 10° WSW 08:41:58 75° SSE 08:45:53 10° ENE daylight
19 Jun - 20:03:48 10° N 20:14:32 17° NE 20:25:20 10° ENE visible
19 Jun - 22:14:09 10° NNW 22:33:03 49° NE 22:48:20 10° ESE visible
20 Jun - 00:31:06 10° WNW 00:50:44 82° SSW 01:03:13 10° ESE visible
20 Jun - 02:53:12 10° W 03:07:20 41° SSW 03:15:50 10° SE visible
20 Jun - 05:15:37 10° SW 05:23:24 26° S 05:28:33 10° SE visible
20 Jun - 07:32:20 10° SW 07:38:07 42° SSE 07:42:11 10° E daylight
20 Jun - 09:47:06 10° W 09:50:27 23° NW 09:53:38 10° NNE daylight
20 Jun - 21:09:19 10° NNW 21:26:16 36° NE 21:41:52 10° E visible
20 Jun - 23:23:59 10° NW 23:44:19 79° NNE 23:58:48 10° ESE visible
21 Jun - 01:44:18 10° W 02:01:36 54° SSW 02:12:09 10° SE visible
21 Jun - 04:07:43 10° WSW 04:18:13 30° S 04:24:51 10° SE visible
21 Jun - 06:26:59 10° SW 06:33:50 32° SSE 06:38:20 10° ESE visible
21 Jun - 08:42:04 10° WSW 08:47:01 55° NW 08:50:53 10° NE daylight
21 Jun - 20:05:41 10° N 20:19:29 25° NE 20:33:36 10° E visible
21 Jun - 22:17:49 10° NW 22:37:35 62° NE 22:53:44 10° ESE visible
22 Jun - 00:35:54 10° WNW 00:55:28 69° SSW 01:08:11 10° SE visible
22 Jun - 02:58:55 10° WSW 03:12:41 37° SSW 03:21:08 10° SE visible
22 Jun - 05:20:38 10° SW 05:29:05 30° S 05:34:26 10° ESE visible
22 Jun - 07:37:03 10° WSW 07:43:24 72° SSE 07:47:39 10° ENE daylight
22 Jun - 09:54:19 10° NW 09:55:21 11° NW 09:56:21 10° NNW daylight
22 Jun - 19:04:12 10° NNE 19:12:47 15° NE 19:21:58 10° ENE visible
22 Jun - 21:12:37 10° NNW 21:30:46 47° NE 21:47:44 10° ESE visible
22 Jun - 23:28:23 10° WNW 23:48:54 86° SSW 00:03:47 10° ESE visible
23 Jun - 01:49:49 10° W 02:06:43 47° SSW 02:17:16 10° SE visible
23 Jun - 04:13:06 10° WSW 04:23:51 31° S 04:30:33 10° ESE visible
23 Jun - 06:31:37 10° SW 06:39:19 46° SSE 06:44:05 10° E daylight
23 Jun - 08:47:31 10° W 08:51:53 28° NW 08:55:22 10° NNE daylight
23 Jun - 20:08:28 10° NNW 20:24:04 34° NE 20:40:23 10° E visible
23 Jun - 22:21:52 10° NW 22:42:03 77° NE 22:58:50 10° ESE visible
24 Jun - 00:41:04 10° W 01:00:20 59° SSW 01:13:10 10° SE visible
24 Jun - 03:04:33 10° WSW 03:18:11 36° S 03:26:36 10° SE visible
24 Jun - 05:25:24 10° SW 05:34:41 38° S 05:40:19 10° E visible
24 Jun - 07:41:58 10° WSW 07:48:27 64° NW 07:52:44 10° NE daylight
24 Jun - 19:05:41 10° N 19:17:36 22° NE 19:30:56 10° E visible
24 Jun - 21:16:21 10° NW 21:35:07 60° NE 21:53:06 10° ESE visible
24 Jun - 23:33:09 10° WNW 23:53:33 73° SSW 00:08:42 10° ESE visible
25 Jun - 01:55:28 10° W 02:12:01 42° SSW 02:22:31 10° SE visible
25 Jun - 04:18:12 10° WSW 04:29:31 35° S 04:36:22 10° ESE visible
25 Jun - 06:36:15 10° WSW 06:44:37 71° SSE 06:49:34 10° ENE daylight
25 Jun - 08:53:50 10° WNW 08:56:35 14° NW 08:58:58 10° N daylight
25 Jun - 18:06:24 10° NNE 18:11:18 12° NE 18:16:36 10° ENE visible
25 Jun - 20:11:50 10° NNW 20:28:24 44° NE 20:46:19 10° ESE visible
25 Jun - 22:26:17 10° WNW 22:46:31 89° SSW 23:03:45 10° ESE visible
26 Jun - 00:46:30 10° W 01:05:23 51° SSW 01:18:14 10° SE visible
26 Jun - 03:10:00 10° WSW 03:23:48 37° S 03:32:15 10° ESE visible
26 Jun - 05:30:02 10° SW 05:40:11 51° SSE 05:46:00 10° E visible
26 Jun - 07:47:10 10° WSW 07:53:15 36° NW 07:57:23 10° NNE daylight
26 Jun - 19:08:24 10° NNW 19:22:02 30° NE 19:38:02 10° E visible
26 Jun - 21:20:27 10° NW 21:39:26 74° NE 21:58:09 10° ESE visible
26 Jun - 23:38:16 10° WNW 23:58:22 63° SSW 00:13:37 10° SE visible
27 Jun - 02:01:06 10° WSW 02:17:30 41° S 02:27:58 10° ESE visible
27 Jun - 04:23:02 10° WSW 04:35:08 43° S 04:42:09 10° E visible
27 Jun - 06:41:00 10° WSW 06:49:39 74° NNW 06:54:42 10° NE daylight
27 Jun - 18:06:35 10° N 18:16:02 18° NE 18:27:13 10° E visible
27 Jun - 20:15:37 10° NW 20:32:36 57° NE 20:51:42 10° ESE visible
27 Jun - 22:31:03 10° WNW 22:51:06 76° SSW 23:08:35 10° ESE visible
